This is the latest recevied weather packets stored in our database for station/object WX9WTF. If no packets are shown the sender has not sent any weather packets the latest 10 day(s).
| Time | Temp. | Humidity | Pressure | Rain* | Wind** | Luminosity | Snow |
|---|---|---|---|---|---|---|---|
| 1777552026 | 7.22° C | 99% | 1019.7 hPa | 0 mm | - | 58 W/m² | - |
| 1777551724 | 6.67° C | 99% | 1019.6 hPa | 0 mm | - | 56 W/m² | - |
| 1777551421 | 6.11° C | 99% | 1019.7 hPa | 0 mm | - | 52 W/m² | - |
| 1777551118 | 5.56° C | 99% | 1019.6 hPa | 0 mm | - | 43 W/m² | - |
| 1777550815 | 5.56° C | 99% | 1019.7 hPa | 0 mm | - | 39 W/m² | - |
| 1777550511 | 5° C | 99% | 1019.6 hPa | 0 mm | - | 38 W/m² | - |
| 1777550207 | 4.44° C | 99% | 1019.5 hPa | 0 mm | - | 34 W/m² | - |
| 1777549904 | 3.89° C | 99% | 1019.4 hPa | 0 mm | - | 28 W/m² | - |
| 1777549600 | 3.89° C | 99% | 1019.4 hPa | 0 mm | - | 23 W/m² | - |
| 1777549290 | 3.89° C | 99% | 1019.4 hPa | 0 mm | - | 18 W/m² | - |
| 1777548988 | 3.89° C | 99% | 1019.6 hPa | 0 mm | - | 13 W/m² | - |
| 1777548684 | 3.89° C | 99% | 1019.6 hPa | 0 mm | - | 9 W/m² | - |
| 1777548381 | 3.89° C | 99% | 1019.4 hPa | 0 mm | - | 6 W/m² | - |
| 1777548079 | 3.89° C | 99% | 1019.3 hPa | 0 mm | - | 3 W/m² | - |
| 1777547774 | 3.89° C | 99% | 1019.4 hPa | 0 mm | - | 2 W/m² | - |
| 1777547470 | 3.89° C | 99% | 1019.1 hPa | 0 mm | - | 1 W/m² | - |
| 1777547168 | 3.89° C | 99% | 1019.4 hPa | 0 mm | - | 0 W/m² | - |
| 1777546865 | 3.89° C | 99% | 1019.4 hPa | 0 mm | - | 0 W/m² | - |
| 1777546562 | 3.89° C | 99% | 1019.3 hPa | 0 mm | - | 0 W/m² | - |
| 1777546258 | 3.89° C | 99% | 1019.6 hPa | 0 mm | - | 0 W/m² | - |
| 1777545956 | 3.89° C | 99% | 1019.4 hPa | 0 mm | - | 0 W/m² | - |
| 1777545652 | 4.44° C | 99% | 1019.7 hPa | 0 mm | - | 0 W/m² | - |
| 1777545349 | 3.89° C | 99% | 1019.6 hPa | 0 mm | - | 0 W/m² | - |
| 1777545046 | 4.44° C | 99% | 1019.4 hPa | 0 mm | - | 0 W/m² | - |
| 1777544743 | 4.44° C | 99% | 1019.6 hPa | 0 mm | - | 0 W/m² | - |
* Rain latest hour (hover to see other rain measurements)
** Current wind speed in m/s (hover to see current wind gust speed)